Wiley, CO

10:38 AM MDT on September 27, 2016 (GMT -0600)
Lamar Municipal

Weather History for KLAA - September, 2014

Change the Weather History Date:

Sunday, September 21, 2014

  Actual Average Record
Temperature  
Mean Temperature 67 °F 64 °F  
Max Temperature 81 °F 81 °F 103 °F (1926)
Min Temperature 52 °F 48 °F 28 °F (1983)
Degree Days  
Heating Degree Days 0 4  
Month to date heating degree days 57 35  
Since 1 July heating degree days 57 40  
Cooling Degree Days 2 3  
Month to date cooling degree days 117 104  
Year to date cooling degree days 1276 1093  
Growing Degree Days 16 (Base 50)    
Moisture  
Dew Point 44 °F    
Average Humidity 55    
Maximum Humidity 83    
Minimum Humidity 26    
Precipitation  
Precipitation 0.00 in 0.05 in 1.44 in (1997)
Month to date precipitation 0.23  
Year to date precipitation 10.45  
Sea Level Pressure  
Sea Level Pressure 30.17 in    
Wind  
Wind Speed 7 mph (ESE)    
Max Wind Speed 17 mph    
Max Gust Speed 23 mph    
Visibility 10 miles    
Events      
T = Trace of Precipitation, MM = Missing Value Source: NWS Daily Summary

Daily Weather History Graph

Daily Weather History Graph

Search for Another Location

Airport or City:

Trip Planner

Search our weather history database for the weather conditions in past years. The results will help you decide how hot, cold, wet, or windy it might be!

Date:

Astronomy

Sep. 21, 2014 Rise Set
Actual Time 6:37 AM MDT 6:49 PM MDT
Civil Twilight 6:11 AM MDT 7:15 PM MDT
Nautical Twilight 5:40 AM MDT 7:46 PM MDT
Astronomical Twilight 5:09 AM MDT 8:17 PM MDT
Moon 4:15 AM MDT (9/21) 5:25 PM MDT (9/21)
Length of Visible Light 13h 04m
Length of Day
12h 11m
Waning Crescent, 6% of the Moon is Illuminated
Sep 21
Waning Crescent
Sep 24
New
Oct 1
First Quarter
Oct 8
Full
Oct 15
Last Quarter

Hourly Weather History & Observations

Time (MDT) Temp. Dew Point Humidity Pressure Visibility Wind Dir Wind Speed Gust Speed Precip Events Conditions
12:53 AM 59.0 °F 50.0 °F 72% 30.08 in 9.0 mi ESE 4.6 mph - N/A   Clear
1:53 AM 55.9 °F 48.9 °F 77% 30.10 in 9.0 mi SSW 3.5 mph - N/A   Clear
2:53 AM 54.0 °F 48.0 °F 80% 30.09 in 8.0 mi WNW 4.6 mph - N/A   Clear
3:53 AM 53.1 °F 48.0 °F 83% 30.12 in 8.0 mi North 6.9 mph - N/A   Clear
4:53 AM 54.0 °F 48.9 °F 83% 30.13 in 9.0 mi NNE 4.6 mph - N/A   Clear
5:53 AM 53.1 °F 48.0 °F 83% 30.17 in 9.0 mi Calm Calm - N/A   Clear
6:53 AM 55.9 °F 48.9 °F 77% 30.22 in 8.0 mi NW 3.5 mph - N/A   Clear
7:53 AM 60.1 °F 48.9 °F 67% 30.23 in 9.0 mi Calm Calm - N/A   Clear
9:53 AM 64.9 °F 45.0 °F 48% 30.27 in 10.0 mi Calm Calm - N/A   Partly Cloudy
10:53 AM 71.1 °F 41.0 °F 34% 30.25 in 10.0 mi East 11.5 mph - N/A   Partly Cloudy
11:53 AM 73.0 °F 41.0 °F 31% 30.25 in 10.0 mi Variable 6.9 mph - N/A   Clear
12:53 PM 73.9 °F 41.0 °F 30% 30.21 in 10.0 mi ESE 9.2 mph - N/A   Clear
1:53 PM 77.0 °F 41.0 °F 28% 30.17 in 10.0 mi ESE 11.5 mph - N/A   Partly Cloudy
2:53 PM 78.1 °F 42.1 °F 28% 30.15 in 10.0 mi Variable 6.9 mph - N/A   Clear
3:53 PM 79.0 °F 43.0 °F 28% 30.14 in 10.0 mi East 5.8 mph - N/A   Clear
4:53 PM 80.1 °F 43.0 °F 27% 30.12 in 10.0 mi SE 13.8 mph - N/A   Clear
5:53 PM 77.0 °F 42.1 °F 29% 30.14 in 10.0 mi SE 13.8 mph - N/A   Clear
6:53 PM 72.0 °F 42.1 °F 34% 30.15 in 10.0 mi ESE 8.1 mph - N/A   Clear
7:53 PM 64.0 °F 42.1 °F 45% 30.18 in 10.0 mi ESE 8.1 mph - N/A   Clear
8:53 PM 63.0 °F 42.1 °F 46% 30.20 in 10.0 mi ESE 8.1 mph - N/A   Clear
9:53 PM 62.1 °F 42.1 °F 48% 30.21 in 10.0 mi ESE 9.2 mph - N/A   Clear
10:53 PM 61.0 °F 41.0 °F 48% 30.19 in 10.0 mi SE 12.7 mph - N/A   Clear
11:53 PM 60.1 °F 41.0 °F 49% 30.19 in 10.0 mi ESE 9.2 mph - N/A   Clear